This is the latest recevied weather packets stored in our database for station/object W1RCY. If no packets are shown the sender has not sent any weather packets the latest 10 day(s).
| Time | Temp. | Humidity | Pressure | Rain* | Wind** | Luminosity | Snow |
|---|---|---|---|---|---|---|---|
| 1777878442 | 3.89° C | 72% | 1007.4 hPa | 0 mm | - | 0 W/m² | - |
| 1777878137 | 3.89° C | 68% | 1007.3 hPa | 0 mm | - | 0 W/m² | - |
| 1777877834 | 3.89° C | 69% | 1007.2 hPa | 0 mm | - | 0 W/m² | - |
| 1777877531 | 4.44° C | 69% | 1007.3 hPa | 0 mm | - | 0 W/m² | - |
| 1777877227 | 5° C | 66% | 1007.3 hPa | 0 mm | - | 0 W/m² | - |
| 1777876925 | 5° C | 65% | 1007.4 hPa | 0 mm | - | 0 W/m² | - |
| 1777876623 | 5° C | 65% | 1007.2 hPa | 0 mm | - | 0 W/m² | - |
| 1777876320 | 4.44° C | 65% | 1007.5 hPa | 0 mm | - | 0 W/m² | - |
| 1777876016 | 5° C | 64% | 1007.4 hPa | 0 mm | - | 0 W/m² | - |
| 1777875711 | 5° C | 63% | 1007.4 hPa | 0 mm | - | 0 W/m² | - |
| 1777875409 | 5° C | 63% | 1007.4 hPa | 0 mm | - | 0 W/m² | - |
| 1777875105 | 4.44° C | 65% | 1007.4 hPa | 0 mm | - | 0 W/m² | - |
| 1777874802 | 4.44° C | 65% | 1007.5 hPa | 0 mm | - | 0 W/m² | - |
| 1777874498 | 4.44° C | 65% | 1007.7 hPa | 0 mm | - | 0 W/m² | - |
| 1777874197 | 4.44° C | 66% | 1007.4 hPa | 0 mm | - | 0 W/m² | - |
| 1777873893 | 4.44° C | 65% | 1007.7 hPa | 0 mm | - | 0 W/m² | - |
| 1777873589 | 4.44° C | 67% | 1007.6 hPa | 0 mm | - | 0 W/m² | - |
| 1777873287 | 4.44° C | 66% | 1007.4 hPa | 0 mm | - | 0 W/m² | - |
| 1777872984 | 5° C | 65% | 1007.4 hPa | 0 mm | - | 0 W/m² | - |
| 1777872681 | 5° C | 64% | 1007.4 hPa | 0 mm | - | 0 W/m² | - |
| 1777872378 | 5° C | 64% | 1007.6 hPa | 0 mm | - | 0 W/m² | - |
| 1777872076 | 5° C | 64% | 1007.3 hPa | 0 mm | - | 0 W/m² | - |
| 1777871773 | 5° C | 64% | 1007.5 hPa | 0 mm | - | 0 W/m² | - |
| 1777871469 | 5° C | 65% | 1007.4 hPa | 0 mm | - | 0 W/m² | - |
| 1777871166 | 5° C | 64% | 1007.4 hPa | 0 mm | - | 0 W/m² | - |
* Rain latest hour (hover to see other rain measurements)
** Current wind speed in m/s (hover to see current wind gust speed)